Weather History for Decorah, IA

Change the Weather History Date:

Saturday, December 15, 2012

  Actual Average Record
Temperature  
Mean Temperature 40 °F -  
Max Temperature 42 °F 30 °F 47 °F (1979)
Min Temperature 39 °F 14 °F -18 °F (1961)
Degree Days  
Heating Degree Days 24    
Moisture  
Dew Point 40 °F    
Average Humidity 96    
Maximum Humidity 100    
Minimum Humidity 81    
Precipitation  
Precipitation 0.36 in - - ()
Sea Level Pressure  
Sea Level Pressure 29.58 in    
Wind  
Wind Speed 10 mph (SSE)    
Max Wind Speed 16 mph    
Max Gust Speed 25 mph    
Visibility 3 miles    
Events Fog , Rain    
Averages and records for this station are not official NWS values.
T = Trace of Precipitation, MM = Missing Value Source: NWS Daily Summary

Daily Weather History Graph

Daily Weather History Graph

Search for Another Location

Airport:

Trip Planner

Search our weather history database for the weather conditions in past years. The results will help you decide how hot, cold, wet, or windy it might be!

Date:

Astronomy

Dec. 15, 2012 Rise Set
Actual Time 7:32 AM CST 4:32 PM CST
Civil Twilight 7:00 AM CST 5:04 PM CST
Nautical Twilight 6:24 AM CST 5:40 PM CST
Astronomical Twilight 5:49 AM CST 6:15 PM CST
Moon 9:22 AM CST (12/15) 7:40 PM CST (12/15)
Length of Visible Light 10h 04m
Length of Day
8h 59m
Waxing Crescent, 8% of the Moon is Illuminated
Dec 15
Waxing Crescent
Dec 19
First Quarter
Dec 28
Full
Jan 4
Last Quarter
Jan 11
New

Hourly Weather History & Observations

Time (CST) Temp. Windchill Dew Point Humidity Pressure Visibility Wind Dir Wind Speed Gust Speed Precip Events Conditions
12:15 AM 39.2 °F 30.8 °F 35.6 °F 87% 29.82 in 5.0 mi SSE 15.0 mph 23.0 mph N/A   Haze
12:35 AM 39.2 °F 32.5 °F 35.6 °F 87% 29.81 in 9.0 mi SE 10.4 mph 19.6 mph N/A   Overcast
12:55 AM 39.2 °F 32.0 °F 35.6 °F 87% 29.80 in 7.0 mi SSE 11.5 mph - N/A   Overcast
1:15 AM 39.2 °F 32.5 °F 37.4 °F 93% 29.79 in 8.0 mi SE 10.4 mph 16.1 mph N/A   Overcast
1:35 AM 39.2 °F 33.0 °F 37.4 °F 93% 29.78 in 10.0 mi SE 9.2 mph - N/A   Overcast
1:55 AM 39.2 °F - 35.6 °F 87% - 10.0 mi North - - N/A   Overcast
2:15 AM 41.0 °F 34.7 °F 35.6 °F 81% 29.77 in 10.0 mi SE 10.4 mph 17.3 mph N/A   Overcast
2:35 AM 41.0 °F 34.7 °F 35.6 °F 81% 29.76 in 10.0 mi SE 10.4 mph 20.7 mph N/A   Overcast
2:55 AM 41.0 °F 34.3 °F 37.4 °F 87% 29.76 in 9.0 mi SE 11.5 mph - N/A   Overcast
3:15 AM 41.0 °F 34.3 °F 37.4 °F 87% 29.74 in 9.0 mi SE 11.5 mph 18.4 mph N/A   Overcast
3:35 AM 41.0 °F 33.5 °F 37.4 °F 87% 29.73 in 7.0 mi SE 13.8 mph 19.6 mph N/A Rain Light Rain
3:55 AM 41.0 °F 34.7 °F 39.2 °F 93% 29.72 in 4.0 mi SE 10.4 mph 17.3 mph N/A Rain Light Rain
4:15 AM 41.0 °F 33.5 °F 39.2 °F 93% 29.71 in 3.0 mi SE 13.8 mph 20.7 mph N/A   Overcast
4:35 AM 41.0 °F 33.9 °F 39.2 °F 93% 29.70 in 3.0 mi SE 12.7 mph 19.6 mph N/A Rain Light Rain
4:55 AM 41.0 °F 33.5 °F 39.2 °F 93% 29.68 in 4.0 mi SE 13.8 mph 23.0 mph 0.09 in Rain Light Rain
5:15 AM 39.2 °F 31.2 °F 39.2 °F 100% 29.66 in 4.0 mi SE 13.8 mph 21.9 mph N/A   Overcast
5:35 AM 39.2 °F 31.2 °F 39.2 °F 100% 29.64 in 3.0 mi SE 13.8 mph 24.2 mph N/A   Overcast
5:55 AM 39.2 °F 32.0 °F 39.2 °F 100% 29.64 in 4.0 mi SE 11.5 mph 25.3 mph 0.08 in Rain Light Rain
6:15 AM 39.2 °F 30.8 °F 39.2 °F 100% 29.63 in 2.5 mi SE 15.0 mph 23.0 mph N/A   Overcast
6:35 AM 39.2 °F 31.2 °F 37.4 °F 93% 29.62 in 3.0 mi SE 13.8 mph 23.0 mph N/A Rain Light Rain
6:55 AM 39.2 °F 31.2 °F 37.4 °F 93% 29.63 in 3.0 mi SE 13.8 mph 23.0 mph 0.10 in   Unknown
7:15 AM 39.2 °F 30.8 °F 37.4 °F 93% 29.63 in 3.0 mi SE 15.0 mph 23.0 mph N/A Rain Light Rain
7:35 AM 39.2 °F 30.5 °F 37.4 °F 93% 29.62 in 5.0 mi SE 16.1 mph 24.2 mph N/A   Unknown
8:15 AM 39.2 °F 31.2 °F 37.4 °F 93% 29.61 in 3.0 mi SE 13.8 mph 21.9 mph N/A Rain Light Rain
8:35 AM 39.2 °F 31.6 °F 37.4 °F 93% 29.60 in 3.0 mi SE 12.7 mph 21.9 mph N/A Rain Light Rain
8:55 AM 39.2 °F 31.2 °F 37.4 °F 93% 29.59 in 4.0 mi SE 13.8 mph 21.9 mph 0.09 in Rain Light Rain
9:15 AM 39.2 °F 32.0 °F 37.4 °F 93% 29.59 in 3.0 mi SE 11.5 mph 19.6 mph N/A   Overcast
9:35 AM 39.2 °F 31.2 °F 39.2 °F 100% 29.58 in 1.8 mi SE 13.8 mph - N/A   Overcast
9:55 AM 39.2 °F 31.6 °F 39.2 °F 100% 29.57 in 1.2 mi SE 12.7 mph 19.6 mph N/A Rain Light Rain
10:15 AM 39.2 °F 32.5 °F 39.2 °F 100% 29.57 in 1.2 mi SSE 10.4 mph 18.4 mph N/A   Overcast
10:35 AM 39.2 °F 32.5 °F 39.2 °F 100% 29.56 in 1.8 mi SE 10.4 mph 18.4 mph N/A   Overcast
10:55 AM 41.0 °F 34.3 °F 39.2 °F 93% 29.55 in 3.0 mi SE 11.5 mph - N/A   Overcast
11:15 AM 41.0 °F 35.8 °F 39.2 °F 93% 29.54 in 2.5 mi SE 8.1 mph 18.4 mph N/A   Overcast
11:35 AM 41.0 °F 35.2 °F 39.2 °F 93% 29.53 in 3.0 mi SE 9.2 mph 16.1 mph N/A   Overcast
11:55 AM 41.0 °F 34.7 °F 41.0 °F 100% 29.52 in 5.0 mi SE 10.4 mph 17.3 mph N/A   Overcast
12:15 PM 41.0 °F 35.2 °F 41.0 °F 100% 29.51 in 4.0 mi SE 9.2 mph 18.4 mph N/A   Overcast
12:35 PM 41.0 °F 38.0 °F 41.0 °F 100% 29.50 in 2.0 mi Variable 4.6 mph 12.7 mph N/A   Overcast
12:55 PM 41.0 °F 35.8 °F 41.0 °F 100% 29.50 in 3.0 mi SSE 8.1 mph - N/A   Overcast
1:15 PM 42.8 °F 37.5 °F 41.0 °F 93% 29.49 in 9.0 mi SSE 9.2 mph - N/A   Overcast
1:35 PM 42.8 °F 38.6 °F 41.0 °F 93% 29.49 in 7.0 mi SE 6.9 mph - N/A   Overcast
1:55 PM 42.8 °F 38.6 °F 41.0 °F 93% 29.48 in 6.0 mi SSE 6.9 mph - N/A   Overcast
2:15 PM 42.8 °F 38.0 °F 41.0 °F 93% 29.48 in 2.0 mi SSE 8.1 mph - N/A   Overcast
2:35 PM 42.8 °F 39.3 °F 41.0 °F 93% 29.48 in 1.5 mi SSE 5.8 mph - N/A   Overcast
2:55 PM 42.8 °F 40.1 °F 41.0 °F 93% 29.48 in 1.5 mi SSE 4.6 mph - N/A   Overcast
3:15 PM 42.8 °F 41.1 °F 42.8 °F 100% 29.48 in 2.5 mi SSE 3.5 mph - N/A   Overcast
3:35 PM 42.8 °F 40.1 °F 42.8 °F 100% 29.48 in 3.0 mi SSE 4.6 mph - N/A   Overcast
3:55 PM 42.8 °F - 42.8 °F 100% 29.49 in 1.5 mi Calm Calm - N/A   Overcast
4:15 PM 42.8 °F 41.1 °F 42.8 °F 100% 29.50 in - South 3.5 mph - N/A   Overcast
4:35 PM 42.8 °F - 42.8 °F 100% 29.50 in 0.2 mi Calm Calm - N/A Fog Fog
4:55 PM 42.8 °F - 42.8 °F 100% 29.50 in 0.2 mi Calm Calm - N/A Fog Fog
5:15 PM 42.8 °F 41.1 °F 42.8 °F 100% 29.50 in 0.2 mi SSE 3.5 mph - N/A Fog Fog
5:35 PM 42.8 °F 41.1 °F 42.8 °F 100% 29.50 in 0.2 mi SSE 3.5 mph - N/A Fog Fog
5:55 PM 42.8 °F 40.1 °F 42.8 °F 100% 29.49 in 0.2 mi ESE 4.6 mph - N/A Fog Fog
6:15 PM 42.8 °F - 42.8 °F 100% 29.50 in 0.2 mi Calm Calm - N/A Fog Fog
6:35 PM 41.0 °F - 41.0 °F 100% - 0.2 mi North - - N/A Fog Fog
6:55 PM 42.8 °F 40.1 °F 42.8 °F 100% 29.52 in 0.2 mi South 4.6 mph - N/A Fog Fog
7:15 PM 42.8 °F 39.3 °F 42.8 °F 100% 29.52 in 0.2 mi South 5.8 mph - N/A Fog Fog
7:35 PM 42.8 °F - 42.8 °F 100% 29.52 in 0.2 mi Calm Calm - N/A Fog Fog
7:55 PM 42.8 °F 40.1 °F 42.8 °F 100% 29.52 in 0.2 mi South 4.6 mph - N/A Fog Fog
8:15 PM 42.8 °F 40.1 °F 42.8 °F 100% 29.51 in 0.2 mi SSW 4.6 mph - N/A Fog Fog
8:35 PM 42.8 °F - 42.8 °F 100% 29.50 in 0.2 mi Calm Calm - N/A Fog Fog
8:55 PM 42.8 °F - 42.8 °F 100% 29.50 in 0.2 mi Calm Calm - N/A Fog Fog
9:15 PM 42.8 °F - 42.8 °F 100% 29.50 in 0.2 mi Calm Calm - N/A   Overcast
9:35 PM 42.8 °F - 42.8 °F 100% 29.50 in 0.2 mi Calm Calm - N/A Fog Fog
9:55 PM 42.8 °F - 42.8 °F 100% 29.50 in 0.2 mi Calm Calm - N/A Fog Fog
10:15 PM 42.8 °F - 42.8 °F 100% 29.49 in 0.2 mi Calm Calm - N/A Fog Fog
10:35 PM 42.8 °F - 42.8 °F 100% 29.50 in 0.2 mi Calm Calm - N/A Fog Fog
10:55 PM 42.8 °F 40.1 °F 42.8 °F 100% 29.50 in 0.2 mi West 4.6 mph - N/A   Light Drizzle
11:15 PM 42.8 °F 41.1 °F 42.8 °F 100% 29.51 in 1.0 mi Variable 3.5 mph - N/A   Mist
11:35 PM 42.8 °F 41.1 °F 42.8 °F 100% 29.50 in 1.5 mi WNW 3.5 mph - N/A   Overcast
11:55 PM 42.8 °F 39.3 °F 42.8 °F 100% 29.50 in 1.2 mi NW 5.8 mph - N/A   Overcast